Simultaneous Nadir Overpasses (SNOs) Predictions

Prediction of SNOs between GOES-17 and AQUA Satellite Orbit:

Table of predicted SNOs for the next 14.0 days since TLE Epoch: 7/18/2025
Index Date Time (GOES-17) GOES-17 Lat,Lon AQUA Lat,Lon Distance(km) Time Diff (sec)
1 07/19/2025 20:34:43 0.08, -89.52 0.71, -86.72 319.73 80
2 07/20/2025 08:51:11 -0.09, -89.49 0.30, -91.34 210.56 80
3 07/22/2025 08:33:27 -0.09, -89.48 -0.75, -86.34 357.34 80
4 07/22/2025 20:50:04 0.10, -89.52 -0.22, -91.00 168.55 80
5 07/24/2025 20:32:20 0.10, -89.53 0.87, -86.01 400.24 80
6 07/25/2025 08:48:48 -0.11, -89.49 0.14, -90.63 129.60 80
7 07/27/2025 08:31:04 -0.11, -89.51 -0.97, -85.64 440.50 80
8 07/27/2025 20:47:40 0.11, -89.55 -0.04, -90.29 84.77 80
9 07/29/2025 20:29:55 0.11, -89.57 1.03, -85.29 486.41 80
10 07/30/2025 08:46:22 -0.12, -89.54 -0.04, -89.92 42.88 80
